Weather History for New Delhi, India

Change the Weather History Date:

Saturday, January 26, 2013

  Actual Average Record
Temperature  
Mean Temperature 54 °F -  
Max Temperature 68 °F 72 °F 68 °F (2014)
Min Temperature 41 °F 50 °F 48 °F (2014)
Degree Days  
Heating Degree Days 10    
Growing Degree Days 4 (Base 50)    
Moisture  
Dew Point 45 °F    
Average Humidity 74    
Maximum Humidity 100    
Minimum Humidity 35    
Precipitation  
Precipitation 0.00 in - - ()
Sea Level Pressure  
Sea Level Pressure 30.08 in    
Wind  
Wind Speed 4 mph ()    
Max Wind Speed 13 mph    
Max Gust Speed -    
Visibility 1.4 miles    
Events Fog    
Averages and records for this station are not official NWS values.
T = Trace of Precipitation, MM = Missing Value Source: Averaged Metar Reports

Daily Weather History Graph

Daily Weather History Graph

Search for Another Location

Airport:

Trip Planner

Search our weather history database for the weather conditions in past years. The results will help you decide how hot, cold, wet, or windy it might be!

Date:

Astronomy

Jan. 26, 2013 Rise Set
Actual Time 7:12 AM IST 5:55 PM IST
Civil Twilight 6:47 AM IST 6:20 PM IST
Nautical Twilight 6:19 AM IST 6:49 PM IST
Astronomical Twilight 5:50 AM IST 7:17 PM IST
Moon 5:21 PM IST (1/26) 6:14 AM IST (1/26)
Length of Visible Light 11h 33m
Length of Day
10h 43m
Waxing Gibbous, 99% of the Moon is Illuminated
Jan 26
Waxing Gibbous
Jan 27
Full
Feb 3
Last Quarter
Feb 10
New
Feb 18
First Quarter

Hourly Weather History & Observations

Time (IST) Temp. Windchill Dew Point Humidity Pressure Visibility Wind Dir Wind Speed Gust Speed Precip Events Conditions
12:00 AM 50.0 °F - 46.4 °F 87% 30.09 in 0.7 mi Calm Calm - N/A   Mist
12:30 AM 50.0 °F - 46.4 °F 87% 30.09 in 0.7 mi Calm Calm - N/A   Mist
1:00 AM 50.0 °F - 46.4 °F 87% 30.09 in 0.7 mi Calm Calm - N/A   Mist
1:30 AM 50.0 °F - 46.4 °F 87% 30.09 in 0.9 mi SSW 3.5 mph - N/A   Mist
2:00 AM 48.2 °F - 46.4 °F 93% 30.06 in 0.7 mi Calm Calm - N/A   Mist
2:30 AM 48.2 °F - 46.4 °F 93% 30.06 in 0.7 mi Calm Calm - N/A   Mist
3:00 AM 46.4 °F - 46.4 °F 100% 30.06 in 0.7 mi Calm Calm - N/A   Mist
3:30 AM 46.4 °F - 46.4 °F 100% 30.09 in 0.9 mi Calm Calm - N/A   Mist
4:30 AM 44.6 °F 43.1 °F 44.6 °F 100% 30.09 in 0.8 mi WSW 3.5 mph - N/A   Mist
5:00 AM 42.8 °F 41.1 °F 42.8 °F 100% 30.09 in 0.6 mi West 3.5 mph - N/A Fog Shallow Fog
6:00 AM 42.8 °F 40.1 °F 42.8 °F 100% 30.09 in 0.5 mi SW 4.6 mph - N/A Fog Shallow Fog
6:30 AM 41.0 °F 38.0 °F 41.0 °F 100% 30.09 in 0.6 mi SW 4.6 mph - N/A Fog Shallow Fog
7:00 AM 41.0 °F 38.0 °F 41.0 °F 100% 30.09 in 0.6 mi WSW 4.6 mph - N/A   Mist
7:30 AM 41.0 °F 38.0 °F 41.0 °F 100% 30.09 in 0.7 mi WSW 4.6 mph - N/A   Mist
8:00 AM 42.8 °F 41.1 °F 42.8 °F 100% 30.12 in 1.0 mi SW 3.5 mph - N/A   Mist
10:00 AM 53.6 °F - 48.2 °F 82% 30.15 in 2.2 mi West 6.9 mph - N/A   Mist
10:30 AM 55.4 °F - 48.2 °F 77% 30.15 in 2.2 mi West 8.1 mph - N/A   Mist
11:00 AM 57.2 °F - 46.4 °F 67% 30.15 in 2.2 mi WNW 9.2 mph - N/A   Haze
11:30 AM 60.8 °F - 46.4 °F 59% 30.15 in 2.2 mi WNW 8.1 mph - N/A   Haze
12:00 PM 62.6 °F - 48.2 °F 59% 30.12 in 2.2 mi WNW 10.4 mph - N/A   Haze
12:30 PM 64.4 °F - 42.8 °F 45% 30.12 in 2.2 mi WNW 11.5 mph - N/A   Haze
1:00 PM 66.2 °F - 42.8 °F 43% 30.09 in 2.2 mi NW 11.5 mph - N/A   Haze
1:30 PM 66.2 °F - 41.0 °F 40% 30.09 in - WNW 11.5 mph - N/A   Haze
2:00 PM 68.0 °F - 41.0 °F 37% 30.06 in - WNW 12.7 mph - N/A   Haze
2:30 PM 68.0 °F - 39.2 °F 35% 30.06 in 2.5 mi WNW 12.7 mph - N/A   Haze
3:00 PM 68.0 °F - 41.0 °F 37% 30.06 in 2.5 mi WNW 11.5 mph - N/A   Haze
3:30 PM 68.0 °F - 41.0 °F 37% 30.06 in 2.2 mi WNW 10.4 mph - N/A   Haze
4:00 PM 68.0 °F - 41.0 °F 37% 30.06 in 2.2 mi WNW 10.4 mph - N/A   Haze
4:30 PM 68.0 °F - 41.0 °F 37% 30.06 in 2.2 mi WNW 10.4 mph - N/A   Haze
5:00 PM 66.2 °F - 42.8 °F 43% 30.06 in 2.2 mi West 9.2 mph - N/A   Haze
5:30 PM 64.4 °F - 44.6 °F 49% 30.06 in 2.2 mi West 6.9 mph - N/A   Haze
6:00 PM 62.6 °F - 46.4 °F 55% 30.06 in 2.2 mi West 5.8 mph - N/A   Haze
6:30 PM 60.8 °F - 48.2 °F 63% 30.06 in - WSW 4.6 mph - N/A   Haze
7:30 PM 57.2 °F - 50.0 °F 77% 30.06 in 1.1 mi SW 4.6 mph - N/A   Smoke
8:00 PM 55.4 °F - 50.0 °F 82% 30.06 in 1.1 mi WSW 4.6 mph - N/A   Smoke
8:30 PM 55.4 °F - 50.0 °F 82% 30.06 in 1.1 mi West 4.6 mph - N/A   Smoke
9:00 PM 53.6 °F - 50.0 °F 88% 30.06 in 1.1 mi West 3.5 mph - N/A   Mist
9:30 PM 53.6 °F - 50.0 °F 88% 30.06 in 1.0 mi West 2.3 mph - N/A   Mist
10:30 PM 53.6 °F - 50.0 °F 88% 30.09 in 0.9 mi WSW 3.5 mph - N/A   Mist
11:00 PM 51.8 °F - 51.8 °F 100% 30.09 in 1.1 mi Calm Calm - N/A   Mist
11:30 PM 51.8 °F - 51.8 °F 100% 30.09 in 1.1 mi Calm Calm - N/A   Mist